Skagway, AK

6:18 AM AKST on February 24, 2017 (GMT -0900)
Skagway

Weather History for PAGY - November, 2012

Change the Weather History Date:

Monday, November 12, 2012

  Actual Average Record
Temperature  
Mean Temperature 33 °F -  
Max Temperature 36 °F 37 °F 48 °F (1970)
Min Temperature 30 °F 30 °F 1 °F (1989)
Degree Days  
Heating Degree Days 32    
Moisture  
Dew Point 29 °F    
Average Humidity 86    
Maximum Humidity 96    
Minimum Humidity 61    
Precipitation  
Precipitation 0.13 in - - ()
Sea Level Pressure  
Sea Level Pressure 29.87 in    
Wind  
Wind Speed 1 mph (North)    
Max Wind Speed 13 mph    
Max Gust Speed 23 mph    
Visibility 5 miles    
Events Rain , Snow    
Averages and records for this station are not official NWS values.
T = Trace of Precipitation, MM = Missing Value Source: NWS Daily Summary

Daily Weather History Graph

Daily Weather History Graph

Search for Another Location

Airport or City:

Trip Planner

Search our weather history database for the weather conditions in past years. The results will help you decide how hot, cold, wet, or windy it might be!

Date:

Astronomy

Nov. 12, 2012 Rise Set
Actual Time 7:50 AM AKST 3:39 PM AKST
Civil Twilight 7:03 AM AKST 4:27 PM AKST
Nautical Twilight 6:12 AM AKST 5:17 PM AKST
Astronomical Twilight 5:24 AM AKST 6:05 PM AKST
Moon 6:14 AM AKST (11/12) 2:56 PM AKST (11/12)
Length of Visible Light 9h 24m
Length of Day
7h 49m
Waning Crescent, 2% of the Moon is Illuminated
Nov 12
Waning Crescent
Nov 13
New
Nov 20
First Quarter
Nov 28
Full
Dec 6
Last Quarter

Hourly Weather History & Observations

Time (AKST) Temp. Windchill Dew Point Humidity Pressure Visibility Wind Dir Wind Speed Gust Speed Precip Events Conditions
12:01 AM 32.0 °F - 30.2 °F 93% 29.79 in 1.2 mi Calm Calm - 0.00 in Snow Light Snow
12:07 AM 32.0 °F - 30.2 °F 93% 29.79 in 1.5 mi Calm Calm - 0.00 in Snow Light Snow
12:11 AM 32.0 °F - 30.2 °F 93% 29.79 in 1.2 mi Calm Calm - 0.00 in Snow Light Snow
12:24 AM 32.0 °F - 30.2 °F 93% 29.79 in 1.5 mi Calm Calm - 0.01 in Snow Light Snow
12:35 AM 32.0 °F - 30.2 °F 93% 29.79 in 1.2 mi Calm Calm - 0.01 in Snow Light Snow
12:43 AM 32.0 °F - 30.2 °F 93% 29.79 in 1.8 mi Calm Calm - 0.01 in Snow Light Snow
12:53 AM 32.0 °F - 30.9 °F 96% 29.79 in 1.8 mi Calm Calm - 0.01 in Snow Light Snow
1:02 AM 32.0 °F - 30.2 °F 93% 29.79 in 1.5 mi Calm Calm - 0.00 in Snow Light Snow
1:12 AM 32.0 °F - 30.2 °F 93% 29.79 in 1.2 mi Calm Calm - 0.00 in Snow Light Snow
1:50 AM 32.0 °F - 30.2 °F 93% 29.80 in 1.8 mi Calm Calm - 0.01 in Snow Light Snow
1:53 AM 32.0 °F - 30.9 °F 96% 29.80 in 1.8 mi Calm Calm - 0.01 in Snow Light Snow
2:16 AM 32.0 °F - 30.2 °F 93% 29.80 in 2.0 mi Calm Calm - 0.00 in Snow Light Snow
2:24 AM 32.0 °F - 30.2 °F 93% 29.80 in 1.5 mi Calm Calm - 0.00 in Snow Light Snow
2:42 AM 32.0 °F - 30.2 °F 93% 29.80 in 2.0 mi Calm Calm - 0.01 in Snow Light Snow
3:21 AM 32.0 °F - 30.2 °F 93% 29.80 in 1.5 mi Calm Calm - 0.01 in Snow Light Snow
3:39 AM 32.0 °F - 30.2 °F 93% 29.80 in 1.2 mi Calm Calm - 0.02 in Snow Light Snow
3:53 AM 32.0 °F - 30.9 °F 96% 29.81 in 1.5 mi Calm Calm - 0.02 in Snow Light Snow
4:51 AM 32.0 °F - 30.2 °F 93% 29.81 in 2.0 mi Calm Calm - 0.02 in Snow Light Snow
4:52 AM 32.0 °F - 30.9 °F 96% 29.82 in 2.0 mi Calm Calm - 0.02 in Snow Light Snow
5:03 AM 32.0 °F - 30.2 °F 93% 29.81 in 4.0 mi Calm Calm - 0.00 in   Overcast
5:53 AM 32.0 °F - 30.9 °F 96% 29.82 in 3.0 mi Calm Calm - 0.00 in Snow Light Snow
6:11 AM 32.0 °F - 30.2 °F 93% 29.82 in 3.0 mi Calm Calm - 0.01 in Snow Light Snow
6:27 AM 33.8 °F - 30.2 °F 87% 29.82 in 3.0 mi Calm Calm - 0.02 in Snow Light Snow
6:53 AM 33.1 °F - 30.9 °F 92% 29.83 in 4.0 mi Calm Calm - 0.03 in Snow Light Snow
7:53 AM 33.1 °F - 30.9 °F 92% 29.84 in 8.0 mi Calm Calm - 0.02 in Rain Light Rain
8:53 AM 33.1 °F - 30.9 °F 92% 29.86 in 7.0 mi Calm Calm - 0.01 in Rain Light Rain
9:53 AM 35.1 °F - 32.0 °F 89% 29.87 in 10.0 mi Calm Calm - 0.01 in   Overcast
10:53 AM 36.0 °F - 30.9 °F 82% 29.89 in 10.0 mi Calm Calm - 0.00 in   Overcast
11:53 AM 36.0 °F 33.3 °F 30.0 °F 79% 29.90 in 10.0 mi Variable 3.5 mph - N/A   Overcast
12:53 PM 35.1 °F - 30.0 °F 82% 29.91 in 10.0 mi Calm Calm - N/A   Overcast
1:53 PM 36.0 °F 31.1 °F 28.0 °F 73% 29.91 in 10.0 mi North 5.8 mph - N/A   Overcast
2:53 PM 36.0 °F 32.1 °F 27.0 °F 70% 29.92 in 10.0 mi NNW 4.6 mph - N/A   Overcast
3:53 PM 35.1 °F 32.2 °F 27.0 °F 72% 29.93 in 10.0 mi Variable 3.5 mph - N/A   Overcast
4:53 PM 35.1 °F 31.0 °F 27.0 °F 72% 29.94 in 10.0 mi Variable 4.6 mph - N/A   Overcast
5:53 PM 33.1 °F - 27.0 °F 78% 29.95 in 10.0 mi Calm Calm - N/A   Mostly Cloudy
6:53 PM 35.1 °F 32.2 °F 23.0 °F 61% 29.96 in 10.0 mi Variable 3.5 mph - N/A   Overcast
7:53 PM 34.0 °F 25.0 °F 23.0 °F 64% 29.98 in 10.0 mi NNE 12.7 mph 21.9 mph N/A   Overcast
8:53 PM 33.1 °F 27.7 °F 24.1 °F 70% 29.99 in 10.0 mi WNW 5.8 mph - N/A   Overcast
9:53 PM 33.1 °F 24.4 °F 24.1 °F 70% 30.00 in 10.0 mi ENE 11.5 mph 17.3 mph N/A   Overcast
10:33 PM 32.0 °F 26.4 °F 24.8 °F 75% 30.01 in 2.0 mi Variable 5.8 mph 23.0 mph 0.00 in Snow Light Snow
10:43 PM 30.2 °F 21.3 °F 26.6 °F 86% 30.02 in 1.5 mi NNE 10.4 mph 16.1 mph 0.00 in Snow Light Snow
10:53 PM 30.9 °F 25.2 °F 25.0 °F 79% 30.02 in 1.5 mi NNW 5.8 mph 17.3 mph 0.00 in Snow Light Snow
11:06 PM 30.2 °F 24.3 °F 26.6 °F 86% 30.01 in 3.0 mi Variable 5.8 mph - 0.00 in Snow Light Snow
11:16 PM 30.2 °F - 24.8 °F 80% 30.02 in 9.0 mi Calm Calm - 0.00 in   Overcast
11:53 PM 33.1 °F 25.5 °F 21.0 °F 61% 30.02 in 10.0 mi NE 9.2 mph - 0.00 in   Overcast